This is the latest recevied weather packets stored in our database for station/object EA2RCU-15. If no packets are shown the sender has not sent any weather packets the latest 10 day(s).
| Time | Temp. | Humidity | Pressure | Rain* | Wind** | Luminosity | Snow |
|---|---|---|---|---|---|---|---|
| 1788012604 | 31.67° C | 18% | 1001 hPa | 0 mm | - | - | - |
| 1788012303 | 31.67° C | 18% | 1001 hPa | 0 mm | - | - | - |
| 1788012004 | 31.67° C | 15% | 1001 hPa | 0 mm | - | - | - |
| 1788011704 | 31.67° C | 15% | 1001 hPa | 0 mm | - | - | - |
| 1788011404 | 31.67° C | 16% | 1001 hPa | 0 mm | - | - | - |
| 1788011104 | 31.11° C | 18% | 1001 hPa | 0 mm | - | - | - |
| 1788010803 | 31.67° C | 18% | 1002 hPa | 0 mm | - | - | - |
| 1788010503 | 31.67° C | 18% | 1002 hPa | 0 mm | - | - | - |
| 1788010214 | 31.11° C | 18% | 1002 hPa | 0 mm | - | - | - |
| 1788009904 | 30.56° C | 16% | 1002 hPa | 0 mm | - | - | - |
| 1788009604 | 31.11° C | 15% | 1002 hPa | 0 mm | - | - | - |
| 1788009304 | 31.11° C | 15% | 1002 hPa | 0 mm | - | - | - |
| 1788009004 | 31.11° C | 15% | 1002 hPa | 0 mm | - | - | - |
| 1788008703 | 31.11° C | 16% | 1002 hPa | 0 mm | - | - | - |
| 1788008404 | 31.11° C | 18% | 1002 hPa | 0 mm | - | - | - |
| 1788008109 | 30.56° C | 18% | 1002 hPa | 0 mm | - | - | - |
| 1788007804 | 30.56° C | 18% | 1002 hPa | 0 mm | - | - | - |
| 1788007503 | 30.56° C | 18% | 1002 hPa | 0 mm | - | - | - |
| 1788007204 | 30.56° C | 18% | 1002 hPa | 0 mm | - | - | - |
| 1788006904 | 30° C | 18% | 1002 hPa | 0 mm | - | - | - |
| 1788006604 | 30.56° C | 18% | 1002 hPa | 0 mm | - | - | - |
| 1788006304 | 30° C | 18% | 1002 hPa | 0 mm | - | - | - |
| 1788006004 | 30° C | 18% | 1002 hPa | 0 mm | - | - | - |
| 1788005704 | 30° C | 18% | 1002 hPa | 0 mm | - | - | - |
| 1788005404 | 29.44° C | 18% | 1002 hPa | 0 mm | - | - | - |
* Rain latest hour (hover to see other rain measurements)
** Current wind speed in m/s (hover to see current wind gust speed)